| time (UTC) | temp F | wind direction | speed knots | gust knots | rain 1hr in | rain 24hr in | rain mn in | humidity % | barometer mb |
| 20260903141549 | 67 | 149 | 1.7 | 8.7 | 0.00 | 0.00 | 0.00 | 82 | 1021.5 |
| 20260903140049 | 67 | 195 | 2.6 | 7.8 | 0.00 | 0.00 | 0.00 | 82 | 1021.8 |
| 20260903134609 | 66 | 156 | 3.5 | 7.8 | 0.00 | 0.00 | 0.00 | 82 | 1021.5 |
| 20260903133051 | 66 | 107 | 1.7 | 7.0 | 0.00 | 0.00 | 0.00 | 84 | 1021.5 |
| 20260903131545 | 65 | 179 | 2.6 | 7.0 | 0.00 | 0.00 | 0.00 | 84 | 1021.5 |
| 20260903130049 | 65 | 158 | 0.9 | 7.8 | 0.00 | 0.00 | 0.00 | 85 | 1021.4 |
| 20260903124548 | 65 | 172 | 2.6 | 7.8 | 0.00 | 0.00 | 0.00 | 85 | 1021.3 |
| 20260903123044 | 65 | 129 | 2.6 | 7.8 | 0.00 | 0.00 | 0.00 | 85 | 1021.5 |
| 20260903121550 | 65 | 200 | 1.7 | 7.0 | 0.00 | 0.00 | 0.00 | 85 | 1021.5 |
| 20260903120056 | 66 | 174 | 0.9 | 5.2 | 0.00 | 0.00 | 0.00 | 85 | 1021.7 |
| 20260903114557 | 66 | 208 | 2.6 | 7.0 | 0.00 | 0.00 | 0.00 | 85 | 1021.8 |
| 20260903113040 | 65 | 183 | 3.5 | 7.8 | 0.00 | 0.00 | 0.00 | 84 | 1021.9 |
| 20260903111538 | 65 | 148 | 0.9 | 6.1 | 0.00 | 0.00 | 0.00 | 85 | 1021.8 |
| 20260903110037 | 65 | 149 | 0.9 | 6.1 | 0.00 | 0.00 | 0.00 | 85 | 1021.8 |
| 20260903104538 | 65 | 224 | 3.5 | 6.1 | 0.00 | 0.00 | 0.00 | 85 | 1021.8 |
| 20260903103037 | 65 | 129 | 1.7 | 6.1 | 0.00 | 0.00 | 0.00 | 84 | 1021.9 |
| 20260903101538 | 65 | 196 | 1.7 | 6.1 | 0.00 | 0.00 | 0.00 | 84 | 1021.7 |
| 20260903100044 | 65 | 181 | 1.7 | 5.2 | 0.00 | 0.00 | 0.00 | 83 | 1021.7 |
| 20260903094537 | 65 | 169 | 1.7 | 7.0 | 0.00 | 0.00 | 0.00 | 83 | 1021.7 |
| 20260903093034 | 65 | 193 | 1.7 | 4.3 | 0.00 | 0.00 | 0.00 | 83 | 1021.7 |
| 20260903091532 | 65 | 180 | 0.9 | 4.3 | 0.00 | 0.00 | 0.00 | 83 | 1021.8 |
| 20260903090033 | 65 | 189 | 0.9 | 6.1 | 0.00 | 0.00 | 0.00 | 82 | 1021.9 |
| 20260903084532 | 65 | 234 | 1.7 | 5.2 | 0.00 | 0.01 | 0.00 | 83 | 1021.9 |
| 20260903083041 | 65 | 248 | 1.7 | 6.1 | 0.00 | 0.01 | 0.00 | 83 | 1021.9 |
| 20260903081530 | 65 | 219 | 1.7 | 5.2 | 0.00 | 0.01 | 0.00 | 82 | 1021.8 |
| 20260903080028 | 65 | 207 | 0.9 | 5.2 | 0.00 | 0.01 | 0.00 | 83 | 1021.9 |
| 20260903074528 | 65 | 195 | 1.7 | 7.0 | 0.00 | 0.01 | 0.00 | 84 | 1022.0 |
| 20260903073027 | 65 | 236 | 1.7 | 0.0 | 0.00 | 0.00 | 0.00 | 84 | 1022.1 |
| 20260903071529 | 65 | 250 | 0.9 | 6.1 | 0.00 | 0.01 | 0.00 | 84 | 1022.1 |
| 20260903070025 | 65 | 177 | 1.7 | 4.3 | 0.00 | 0.01 | 0.00 | 85 | 1022.0 |
| 20260903064525 | 65 | 218 | 1.7 | 6.1 | 0.00 | 0.01 | 0.00 | 84 | 1022.2 |
| 20260903063024 | 65 | 179 | 1.7 | 5.2 | 0.00 | 0.01 | 0.00 | 85 | 1022.1 |
| 20260903061539 | 66 | 145 | 2.6 | 7.8 | 0.00 | 0.01 | 0.00 | 84 | 1022.0 |
| 20260903060023 | 66 | 130 | 1.7 | 7.8 | 0.00 | 0.01 | 0.00 | 85 | 1022.1 |
| 20260903054523 | 66 | 205 | 1.7 | 6.1 | 0.00 | 0.01 | 0.00 | 85 | 1021.9 |
| 20260903053022 | 66 | 190 | 1.7 | 6.1 | 0.00 | 0.01 | 0.00 | 85 | 1021.8 |
| 20260903051519 | 65 | 255 | 0.0 | 5.2 | 0.00 | 0.01 | 0.00 | 85 | 1022.0 |
| 20260903050019 | 65 | 221 | 0.9 | 3.5 | 0.00 | 0.01 | 0.00 | 85 | 1022.1 |
| 20260903044518 | 65 | 248 | 0.9 | 3.5 | 0.00 | 0.01 | 0.00 | 85 | 1022.2 |
| 20260903043018 | 65 | 233 | 0.9 | 2.6 | 0.00 | 0.01 | 0.00 | 84 | 1022.3 |
| 20260903041528 | 65 | 224 | 0.9 | 3.5 | 0.00 | 0.01 | 0.00 | 85 | 1022.3 |
| 20260903040018 | 65 | 178 | 0.9 | 3.5 | 0.00 | 0.01 | 0.00 | 85 | 1022.4 |
| 20260903034515 | 65 | 216 | 3.5 | 5.2 | 0.00 | 0.01 | 0.00 | 84 | 1022.5 |
| 20260903033016 | 65 | 224 | 0.9 | 4.3 | 0.00 | 0.01 | 0.00 | 85 | 1022.4 |
| 20260903031520 | 65 | 186 | 0.9 | 4.3 | 0.00 | 0.01 | 0.00 | 86 | 1022.1 |
| 20260903030012 | 65 | 197 | 0.9 | 3.5 | 0.00 | 0.01 | 0.00 | 86 | 1022.1 |
| 20260903024508 | 65 | 167 | 0.9 | 5.2 | 0.00 | 0.01 | 0.01 | 87 | 1022.0 |
| 20260903023009 | 65 | 167 | 0.9 | 6.1 | 0.00 | 0.01 | 0.01 | 87 | 1022.2 |
| 20260903021507 | 65 | 224 | 0.9 | 3.5 | 0.00 | 0.01 | 0.01 | 87 | 1022.1 |
| 20260903020024 | 65 | 217 | 0.9 | 5.2 | 0.00 | 0.01 | 0.01 | 88 | 1022.3 |
| 20260903014506 | 65 | 210 | 0.9 | 3.5 | 0.00 | 0.01 | 0.01 | 89 | 1022.2 |
| 20260903013006 | 65 | 233 | 0.9 | 2.6 | 0.00 | 0.01 | 0.01 | 89 | 1022.5 |
| 20260903011505 | 64 | 206 | 0.0 | 2.6 | 0.00 | 0.01 | 0.01 | 88 | 1022.6 |
| 20260903010009 | 65 | 226 | 0.0 | 2.6 | 0.00 | 0.01 | 0.01 | 88 | 1022.8 |
| 20260903004506 | 65 | 234 | 0.0 | 2.6 | 0.00 | 0.01 | 0.01 | 88 | 1022.7 |
| 20260903003004 | 64 | 230 | 0.9 | 3.5 | 0.00 | 0.01 | 0.01 | 88 | 1022.8 |
| 20260903001505 | 65 | 184 | 0.9 | 4.3 | 0.00 | 0.01 | 0.01 | 88 | 1022.6 |
| 20260903000003 | 65 | 268 | 0.9 | 3.5 | 0.00 | 0.01 | 0.01 | 88 | 1022.5 |
| 20260902234503 | 65 | 236 | 0.9 | 3.5 | 0.00 | 0.01 | 0.01 | 88 | 1022.5 |
| 20260902233003 | 65 | 259 | 0.9 | 3.5 | 0.00 | 0.01 | 0.01 | 87 | 1022.5 |
| 20260902231502 | 65 | 200 | 0.9 | 3.5 | 0.00 | 0.01 | 0.01 | 86 | 1022.3 |
| 20260902230001 | 65 | 224 | 0.9 | 3.5 | 0.00 | 0.01 | 0.01 | 85 | 1022.4 |
| 20260902224501 | 65 | 226 | 1.7 | 3.5 | 0.00 | 0.01 | 0.01 | 86 | 1022.4 |
| 20260902223002 | 66 | 148 | 0.0 | 3.5 | 0.00 | 0.01 | 0.01 | 85 | 1022.2 |
| 20260902221600 | 66 | 159 | 0.0 | 3.5 | 0.00 | 0.01 | 0.01 | 85 | 1022.2 |
| 20260902220108 | 66 | 155 | 0.0 | 5.2 | 0.00 | 0.01 | 0.01 | 85 | 1022.4 |
| 20260902214559 | 66 | 158 | 0.0 | 0.9 | 0.00 | 0.01 | 0.01 | 85 | 1022.4 |
| 20260902213101 | 66 | 148 | 2.6 | 5.2 | 0.00 | 0.01 | 0.01 | 84 | 1022.5 |
| 20260902211600 | 67 | 176 | 0.0 | 3.5 | 0.00 | 0.01 | 0.01 | 83 | 1022.6 |
| 20260902210058 | 67 | 198 | 2.6 | 4.3 | 0.00 | 0.01 | 0.01 | 83 | 1022.9 |
| 20260902204558 | 67 | 148 | 0.9 | 3.5 | 0.00 | 0.01 | 0.01 | 84 | 1022.9 |
| 20260902203100 | 67 | 202 | 1.7 | 5.2 | 0.00 | 0.01 | 0.01 | 83 | 1023.0 |
| 20260902201600 | 68 | 156 | 2.6 | 4.3 | 0.00 | 0.01 | 0.01 | 82 | 1022.9 |
| 20260902200056 | 69 | 162 | 3.5 | 6.1 | 0.00 | 0.01 | 0.01 | 81 | 1022.9 |
| 20260902194600 | 68 | 184 | 2.6 | 6.1 | 0.00 | 0.01 | 0.01 | 83 | 1022.9 |
| 20260902193055 | 69 | 165 | 1.7 | 5.2 | 0.00 | 0.01 | 0.01 | 83 | 1022.9 |
| 20260902191554 | 69 | 174 | 2.6 | 6.1 | 0.00 | 0.01 | 0.01 | 80 | 1022.9 |
| 20260902190054 | 70 | 198 | 4.3 | 7.0 | 0.00 | 0.01 | 0.01 | 81 | 1022.9 |
| 20260902184553 | 70 | 154 | 2.6 | 7.8 | 0.00 | 0.01 | 0.01 | 81 | 1022.8 |
| 20260902183052 | 70 | 191 | 3.5 | 7.0 | 0.00 | 0.01 | 0.01 | 80 | 1022.7 |
| 20260902181552 | 72 | 152 | 0.0 | 1.7 | 0.00 | 0.01 | 0.01 | 76 | 1022.8 |
| 20260902180056 | 72 | 169 | 0.0 | 0.9 | 0.00 | 0.01 | 0.01 | 76 | 1022.7 |
| 20260902174551 | 73 | 98 | 0.0 | 0.9 | 0.00 | 0.01 | 0.01 | 73 | 1022.8 |
| 20260902173049 | 73 | 124 | 0.0 | 0.9 | 0.00 | 0.01 | 0.01 | 74 | 1022.8 |
| 20260902171549 | 73 | 117 | 0.0 | 1.7 | 0.00 | 0.01 | 0.01 | 77 | 1022.8 |
| 20260902170046 | 72 | 153 | 0.0 | 1.7 | 0.00 | 0.01 | 0.01 | 78 | 1022.7 |
| 20260902164543 | 72 | 128 | 0.0 | 2.6 | 0.00 | 0.01 | 0.01 | 79 | 1022.6 |
| 20260902163044 | 71 | 106 | 0.0 | 4.3 | 0.00 | 0.01 | 0.01 | 82 | 1022.4 |
| 20260902161542 | 71 | 120 | 1.7 | 5.2 | 0.00 | 0.01 | 0.01 | 82 | 1022.4 |
| 20260902160040 | 70 | 51 | 0.9 | 7.0 | 0.00 | 0.01 | 0.01 | 83 | 1022.6 |
| 20260902154537 | 70 | 205 | 0.9 | 6.1 | 0.00 | 0.01 | 0.01 | 84 | 1022.6 |
| 20260902153036 | 70 | 122 | 1.7 | 6.1 | 0.00 | 0.01 | 0.01 | 83 | 1022.6 |
| 20260902151540 | 70 | 117 | 0.9 | 6.1 | 0.00 | 0.01 | 0.01 | 83 | 1022.8 |
| 20260902150032 | 69 | 51 | 0.9 | 7.0 | 0.00 | 0.01 | 0.01 | 84 | 1022.8 |
| 20260902144529 | 68 | 83 | 2.6 | 6.1 | 0.00 | 0.01 | 0.01 | 84 | 1022.9 |
| 20260902143026 | 68 | 96 | 3.5 | 6.1 | 0.00 | 0.01 | 0.01 | 84 | 1022.9 |